Regional Weather Roundup
Issued by NWS

Home | Current Version | Previous Version | Graphics & Text | Print | Product List | Glossary On
Versions: 1 2 3 4 5 6 7 8 9 10 11 12 13 14 15 16 17 18 19 20 21 22 23 24 25 26 27 28 29 30 31 32 33 34 35 36 37 38 39 40 41 42 43 44 45 46 47 48 49 50
000
ASUS43 KLOT 090312
RWRIL

ILLINOIS REGIONAL WEATHER ROUNDUP
NATIONAL WEATHER SERVICE CHICAGO/ROMEOVILLE IL
900 PM CST THU DEC 08 2016

NOTE: "FAIR" INDICATES FEW OR NO CLOUDS BELOW 12,000 FEET WITH NO
SIGNIFICANT WEATHER AND/OR OBSTRUCTIONS TO VISIBILITY.

* THESE STATIONS ARE NOT UNDER NWS QUALITY CONTROL. THEY ALSO MAY NOT
  REPORT WEATHER SUCH AS PRECIPITATION OR FOG.

ILZ001-002-007-009-015-016-024-090400-
NORTHWEST ILLINOIS

CITY           SKY/WX    TMP DP  RH WIND       PRES   REMARKS
MOLINE         CLOUDY    23  13  65 NW15G28   30.50R WCI  10
STERLING*      FLURRIES  22  16  78 W14       30.46R WCI   9
SAVANNA*       CLOUDY    22  15  71 NW12      30.47R WCI  11
$$

ILZ003-004-008-010-011-017-018-090400-
NORTH CENTRAL ILLINOIS

CITY           SKY/WX    TMP DP  RH WIND       PRES   REMARKS
ROCKFORD       FLURRIES  23  16  74 W14G21    30.43R WCI  11
FREEPORT*      FLURRIES  22  17  81 W13       30.44R WCI   9
ROCHELLE*      CLOUDY    22  17  81 W12       30.43S WCI  11
DE KALB*       FLURRIES  22  17  79 W15       30.40S WCI   9
$$

ILZ005-006-012>014-019>023-090400-
NORTHEAST ILLINOIS

CITY           SKY/WX    TMP DP  RH WIND       PRES   REMARKS
CHICAGO-OHARE  FLURRIES  23  16  74 W15       30.38S WCI  10
CHICAGO-MIDWAY FLURRIES  25  14  63 W13G22    30.40R WCI  14
AURORA         CLOUDY    24  17  74 W14       30.42R WCI  12
LANSING*       CLOUDY    24  18  77 W16       30.41R WCI  10
JOLIET*        CLOUDY    25  18  76 W8        30.44R WCI  16
WAUKEGAN       CLEAR     22  16  78 W8        30.34S WCI  12
DUPAGE AIRPORT FLURRIES  23  15  71 W14       30.39S WCI  11
KANKAKEE*      FLURRIES  23  17  75 W10G16    30.45R WCI  13
WHEELING       CLEAR     23  15  71 W9        30.39S WCI  13
MORRIS*        FLURRIES  23  18  81 W13       30.43S WCI  11
ROMEOVILLE*    FLURRIES  23  20  87 W13       30.42R WCI  11
NORTHERLY ISL    N/A     25  16  68 W16         N/A  WCI  12
$$

LMZ740>746-090400-
SOUTHERN LAKE MICHIGAN

STATION/POSITION SKY/WX   TEMP    WIND        PRES    VSBY  WAVE
                          AIR SEA DIR/SP/G                  HT/PER
                          (F)     (DEG/KT/KT) (MB)    (MI)  (FT/S)
HARRISON CRIB              26     280/ 19/ 22   N/A
BURNHAM HARBOR             25     270/ 10/ 17   N/A
CALUMET HARBOR             24     260/  7/ 13 1028.4S
BURNS HARBOR               27     280/ 20     1028.8S
$$

ILZ025>027-034>036-040-047-049-050-058-095>099-090400-
WEST-CENTRAL ILLINOIS

CITY           SKY/WX    TMP DP  RH WIND       PRES   REMARKS
QUINCY         CLOUDY    21  13  71 W8        30.56S WCI  11
GALESBURG*     CLOUDY    21  15  78 W10       30.50S WCI  10
MACOMB*        CLOUDY    23  15  72 W13       30.55S WCI  11
JACKSONVILLE*  CLOUDY    18  13  80 W5        30.56S WCI  11
PITTSFIELD*    PTCLDY    22  13  69 W6        30.57S WCI  14
$$

ILZ028>032-037-038-041>044-048-051>054-059>061-090400-
CENTRAL ILLINOIS

CITY           SKY/WX    TMP DP  RH WIND       PRES   REMARKS
PONTIAC        CLOUDY    24  17  77 W18G25    30.48R WCI   9
BLOOMINGTON    FLURRIES  20  14  77 W17       30.48S WCI   5
DECATUR        CLOUDY    20  12  71 NW13      30.53R WCI   7
PEORIA         CLOUDY    22  13  68 NW12G22   30.52S WCI  10
LACON*         FLURRIES  22  16  77 W7        30.49S WCI  14
LINCOLN*       CLOUDY    22  14  71 W8        30.53S WCI  13
SPRINGFIELD    MOCLDY    20  14  77 W7        30.55S WCI  11
TAYLORVILLE    PTCLDY    20  12  71 CALM      30.55S
$$

ILZ033-039-045-046-055>057-062-063-090400-
EAST-CENTRAL ILLINOIS

CITY           SKY/WX    TMP DP  RH WIND       PRES   REMARKS
CHAMPAIGN      FLURRIES  21  14  74 W16       30.50R WCI   7
RANTOUL*       CLOUDY    24  16  74 W10       30.48S WCI  13
MATTOON        CLOUDY    21  11  65 NW20      30.51S WCI   6
PARIS*         FLURRIES  21  15  79 W12       30.52S WCI   9
$$

ILZ079-100>102-090400-
SOUTHWEST ILLINOIS

CITY           SKY/WX    TMP DP  RH WIND       PRES   REMARKS
ALTON          CLOUDY    25  14  63 W10       30.57S WCI  15
BELLEVILLE     CLOUDY    25  13  59 NW10      30.57R WCI  15
CAHOKIA*       CLOUDY    26  12  55 NW8       30.59S WCI  18
SPARTA*        CLEAR     24  14  67 NW7       30.58S WCI  15
$$

ILZ064>066-069>071-074>076-080>082-084>086-088>090-092>094-090400-
SOUTH-CENTRAL ILLINOIS

CITY           SKY/WX    TMP DP  RH WIND       PRES   REMARKS
CARBONDALE     CLEAR     24  15  68 NW8       30.58R WCI  15
CAIRO*         CLEAR     27  17  64 NW9       30.57S WCI  18
EFFINGHAM*     CLOUDY    25  16  70 W10G17    30.55S WCI  14
MARION         CLEAR     27  16  63 NW5       30.57S WCI  21
CENTRALIA*     CLOUDY    27  16  65 NW13      30.55S WCI  16
SALEM*         CLOUDY    28  15  58 NW14G21   30.54S WCI  16
METROPOLIS*    CLEAR     26  15  63 CALM      30.57S
$$

ILZ067-068-072-073-078-083-087-091-090400-
SOUTHEAST ILLINOIS

CITY           SKY/WX    TMP DP  RH WIND       PRES   REMARKS
LAWRENCEVILLE  CLOUDY    25  13  60 NW16G24   30.54S WCI  12
FLORA*         CLOUDY    27  16  62 NW9       30.55S WCI  18
FAIRFIELD*     CLOUDY    27  15  61 NW6       30.54S WCI  20
HARRISBURG*    CLEAR     25  16  69 NW6       30.57S WCI  18
ROBINSON*      CLOUDY    23  14  68 NW13      30.54S WCI  11
CARMI*         CLOUDY    27  17  64 NW13G18   30.54F WCI  16
$$

ABBREVIATIONS USED IN REMARKS
   TC - TEMPERATURE IN CELSIUS
  WCI - WIND CHILL INDEX
   HX - HEAT INDEX
  VSB - VISIBILITY
$$





USA.gov is the U.S. government's official web portal to all federal, state and local government web resources and services.